Regional Weather Roundup
Issued by NWS

Current Version | Previous Version | Text Only | Print | Product List | Glossary On
Versions: 1 2 3 4 5 6 7 8 9 10 11 12 13 14 15 16 17 18 19 20 21 22 23 24 25 26 27 28 29 30 31 32 33 34 35 36 37 38 39 40 41 42 43 44 45 46 47 48 49 50
909
ASUS44 KLIX 280512
RWRLA
LOUISIANA REGIONAL WEATHER ROUNDUP
NATIONAL WEATHER SERVICE NEW ORLEANS LA
ISSUED BY NATIONAL WEATHER SERVICE MOBILE AL
1200 AM CDT TUE JUN 28 2016

NOTE: "FAIR" INDICATES FEW OR NO CLOUDS BELOW 12,000 FEET WITH NO
      SIGNIFICANT WEATHER AND/OR OBSTRUCTIONS TO VISIBILITY.
      SKY/WX - SKY CONDITION AND SIGNIFICANT WEATHER.
      TMP - AIR TEMPERATURE.    DP   - DEWPOINT TEMPERATURE.
      RH  - RELATIVE HUMIDITY.  PRES - PRESSURE.
      HX  - HEAT INDEX.         WCI  - WIND CHILL INDEX.

LAZ040-048-061>063-065-066-069-280600-
SOUTHEAST LOUISIANA


CITY           SKY/WX    TMP DP  RH WIND       PRES   REMARKS
N.O. AUDUBON   NOT AVBL
N.O. INTL ARPT CLOUDY    78  75  90 S3        30.01F
N.O. LAKEFRONT CLOUDY    83  71  67 N7        30.01F
SLIDELL        CLOUDY    76  73  91 NE3       30.02F
BELLE CHASSE   CLOUDY    75  32  20 CALM      30.00F
BATON ROUGE    CLOUDY    78  70  76 N3        30.01F
HAMMOND        CLOUDY    73  70  88 NE5       30.00F
SALT POINT       N/A     79  74  84 VRB5      30.01
HOUMA          CLOUDY    75  72  89 CALM      30.01F
GALLIANO       CLOUDY    77  71  81 CALM      30.02F
BOOTHVILLE     MOCLDY    79  72  79 NW7       30.03S
PORT FOURCHON  CLEAR     81  73  78 E9        30.01F

$$

LAZ041-044-053-054-280600-
SOUTHWEST LOUISIANA


CITY           SKY/WX    TMP DP  RH WIND       PRES   REMARKS
LAKE CHARLES   CLOUDY    79  76  90 CALM      30.02F
LAFAYETTE      MOCLDY    79  74  84 N3        30.01F
PATTERSON      CLOUDY    77  75  93 E3        30.01F
NEW IBERIA     MOCLDY    77  75  93 CALM      30.01F
CHENAULT AIRPK RAIN      78  75  90 S3        30.02S
SULPHUR        CLOUDY    81  77  89 CALM      30.02F

$$

LAZ027-028-280600-
CENTRAL LOUISIANA


CITY           SKY/WX    TMP DP  RH WIND       PRES   REMARKS
FORT POLK      MOCLDY    77  75  93 SW7       30.03F
EAST FORT POLK NOT AVBL
AEXANDRIA INTL PTCLDY    76  75  97 NW3       30.01F
ALEXANDRIA     PTCLDY    77  74  90 CALM      30.03S
DERIDDER       PTCLDY    76  75  95 CALM      30.06F
OAKDALE        CLOUDY    75  74  98 CALM      30.03S
PEASON RIDGE   CLOUDY    76  74  93 CALM      30.03F

$$

LAZ001-002-280600-
NORTHWEST LOUISIANA


CITY           SKY/WX    TMP DP  RH WIND       PRES   REMARKS
SHREVEPORT     MOCLDY    78  75  90 W6        30.04F
BARKSDALE AFB  CLOUDY    75  75 100 N3        30.04F
DTN SHREVEPORT CLOUDY    78  74  87 CALM      30.04F
NATCHITOCHES   CLOUDY    76  74  92 CALM      30.03S

$$

LAZ004-006-280600-
NORTHEAST LOUISIANA


CITY           SKY/WX    TMP DP  RH WIND       PRES   REMARKS
MONROE         CLOUDY    76  76 100 CALM      30.03F
BASTROP        CLOUDY    76  76  98 CALM      30.03F
RUSTON         CLOUDY    78  75  90 CALM      30.07F
TALLULAH       CLOUDY    80  72  76 SE7       30.02S

$$





USA.gov is the U.S. government's official web portal to all federal, state and local government web resources and services.